Showing default

LYRA-3, 64577

Orbit data source: Space-Track

LYRA-3, 64577 is a payload satellite owned by Echostar AU (AU) in SSO that was launched on Mon, 23 Jun 2025 UTC via an FALCON 9 launch vehicle from the Air Force Western Test Range (AFWTR). Payload-class satellites include a variety of spacecraft equipped with specific instruments for various scientific and technological missions. These include communications satellites like Starlink; space stations such as the ISS; scientific satellites like the Hubble; Earth observation satellites from companies like Planet Labs, Umbra, and HawkEye 360; GPS; miniature CubeSats for education and research; and military/defense satellites.

Loading next visibility...
Identifier
64577, 2025-135BB
Orbit
SSO
Country
Flag of AUAU / AUS
Related business
Manufacturer
Astro Digital
Mission
Operational Commercial Communications
Bus & Motor
CORVUS XL, Unknown motor
Mass
74 kg wet, 74 kg dry
Launch date (UTC)
2025-06-23 (1 year ago)
Launch vehicle
FALCON 9
Launch site
Air Force Western Test Range (AFWTR)
Object type
Payload
Rocket body
Debris
Shape & HBR
Box, 1.0 m
Radar Cross Section
0.425 m², Medium (>0.1 m² and < 1m²)

Expand to show TLE details & history
Last TLE update: 4 hours ago

TLE from 4 hours ago
0 LYRA-3
1 64577U 25135BB  26178.54403231  .00001328  00000-0  20647-3 0  9997
2 64577  97.7743 283.1356 0019584 311.3507  48.6017 14.74506759 54792
Epoch: 2026-06-27T13:03Z
TLE epoch observation values (Epoch: 2026-06-27T13:03:24.391Z)
Latitude
-0.00004°
Longitude
171.62731°
Altitude
640.651 km
Speed
7.543 km/s
True Right ascension
18h 52m 32s
True Declination
0° 00' 00"
Sunlit
Object was in full shadow at epoch
Visualization orbit readout
Latitude
Unknown
Longitude
Unknown
Altitude
Unknown
Speed
Unknown
Apparent Right ascension
Unknown
Apparent Declination
Unknown
Sunlit
N/A
Visualization observer readout
Local Sidereal Time
04:19:12
Azimuth
Unknown
Elevation
Unknown
Doppler factor
Unknown
Orbital elements
Apogee altitude
657.512 km
Perigee altitude
630.008 km
Semi-major axis
7,021.897 km
Eccentricity
0.00196
Inclination
97.7743°
RAAN
283.1356°
Arg. of periapsis
311.3507°
True anomaly
48.77031°
Mean anomaly
48.6017°
Eccentric anomaly
48.68598°
Mean motion
3.6886 °/min
Orbital period
97.6 mins
BSTAR
0.00020647
Loading maneuver chart data...
Computing Atmospheric mass density...
Loading historical data...
Loading historical data...
Loading historical data...
Loading historical data...
Loading historical data...
Loading historical data...
Loading historical data...

Documentation

Showing up to 5 results
|